AirNav   Air Wisconsin Up To $57,000 Bonus
 
 1085 users online  

CO12 Van Aire Airport
Brighton, Colorado, USA

GOING TO BRIGHTON?


FAA INFORMATION EFFECTIVE 15 JULY 2021

Location

FAA Identifier: CO12
Lat/Long: 39-59-00.1700N 104-42-16.1200W
39-59.002833N 104-42.268667W
39.9833806,-104.7044778
(estimated)
Elevation: 5055 ft. / 1541 m (estimated)
Variation: 11E (1985)
From city: 5 miles E of BRIGHTON, CO
Time zone: UTC -6 (UTC -7 during Standard Time)
Zip code: 80601

Airport Operations

Airport use: Private use. Permission required prior to landing
Activation date: 06/1970
Control tower: no
ARTCC: DENVER CENTER
FSS: DENVER FLIGHT SERVICE STATION
Attendance: UNATNDD
Wind indicator: yes
Segmented circle: yes
Lights: ACTVT MIRL RY 12/30 - 122.9.

Airport Communications

WX ASOS at DEN (7 nm S): PHONE 303-342-1920
WX AWOS-3 at CFO (14 nm SE): 119.025 (303-261-9104)
WX AWOS-3 at EIK (16 nm W): 133.825 (303-604-4339)
WX AWOS-3 at BJC (20 nm W): PHONE 720-887-8067

Nearby radio navigation aids

VOR radial/distance  VOR name  Freq  Var
DVVr317/6.5MILE HIGH VORTAC114.7008E
DENr341/10.4DENVER VOR/DME117.9008E
FQFr337/18.0FALCON VORTAC116.3011E
BJCr067/20.4JEFFCO VOR/DME115.4011E
GLLr180/32.0GILL VOR/DME114.2013E

Airport Services

Fuel available: 100LL
Airframe service: NONE
Powerplant service: NONE

Runway Information

Runway 12/30

Dimensions: 3700 x 50 ft. / 1128 x 15 m
Surface: asphalt
Runway edge lights: medium intensity
RUNWAY 12  RUNWAY 30
Traffic pattern: leftright
Displaced threshold: 331 ft.294 ft.

Airport Ownership and Management from official FAA records

Ownership: Privately-owned
Owner: VAN AIRE SKYPORT CORP
PO BOX 55
BRIGHTON, CO 80601
Manager: BRANDON JEWETT
PO BOX 55
BRIGHTON, CO 80601
Phone 303-521-3238

Airport Operational Statistics

Aircraft based on the field: 89
Single engine airplanes: 85
Multi engine airplanes: 4
    

Additional Remarks

ARPT IN RESIDENTIAL SUBDIVISION. ROADS IN CLOSE PROXIMITY BOTH ENDS OF RWY.
PRIM USE OF RWY IS FOR HOME OWNERS AT ARPT. PPR FOR USE. CTC VANAIRESKYPORT.ORG FOR WAIVER AND INSTRUCTIONS.
RWY 12/30 SINGLE LGT VASI BOTH RWY APCHS.
TPA 5800 FT.
FOR CD CTC DENVER APCH AT 303-342-1916.

Instrument Procedures

There are no published instrument procedures at CO12.

Some nearby airports with instrument procedures:

KDEN - Denver International Airport (7 nm S)
KCFO - Colorado Air and Space Port Airport (14 nm SE)
KEIK - Erie Municipal Airport (16 nm W)
KBKF - Buckley Air Force Base (17 nm S)
KBJC - Rocky Mountain Metro Airport (20 nm W)
 
Loc | Ops | Rwys | IFR | FBO | Links
Com | Nav | Svcs | Stats | Notes

AirBoss

 
Area around CO12 (Van Aire Airport)
 
Road maps at: MapQuest Bing Google
 
Aerial photo
WARNING: Photo may not be current or correct
Aerial photo of CO12 (Van Aire Airport)
Photo by Brandon Jewett.
Taken in the Summer of 2008

Do you have a better or more recent aerial photo of Van Aire Airport that you would like to share? If so, please send us your photo.

 
Sectional chart

 
Airport distance calculator
Flying to Van Aire Airport? Find the distance to fly.

From to CO12

Sunrise and sunset
Times for 02-Aug-2021
 Local
(UTC-6)
 Zulu
(UTC)
Morning civil twilight05:2911:29
Sunrise05:5911:59
Sunset20:1102:11
Evening civil twilight20:4102:41

Current date and time
Zulu (UTC)  02-Aug-2021 23:53:47
Local (UTC-6)  02-Aug-2021 17:53:47
 
METAR
KDEN 
9nm S 
022253Z 00000KT 9SM FEW110 SCT250 31/06 A3018 RMK AO2 SLP134 T03060061
KCFO 
14nm SE 
022258Z 00000KT 10SM FEW110 SCT250 32/04 A3020
KEIK 
16nm W 
022335Z AUTO 33006KT 10SM SCT110 27/12 A3017 RMK AO2 LTG DSNT S AND W T02680119 PWINO
KBKF 
16nm S 
022258Z 01005KT 10SM FEW100 BKN220 31/06 A3020 RMK AO2A SLP146 T03060058
KBJC 
19nm W 
022225Z 00000KT 6SM FU BKN120 29/08 A3022
TAF
KDEN 
9nm S 
022105Z 0221/0324 13007KT P6SM FU FEW100 SCT220 FM030100 12010KT P6SM FU SCT080 BKN140 FM030300 22008KT P6SM SCT080 BKN120 FM031400 VRB05KT P6SM SCT080 BKN110 FM031800 01007KT P6SM SCT080 BKN110 FM032100 02008KT P6SM VCTS SCT080CB BKN110
KBKF 
16nm S 
021712Z 0217/0323 11009KT 9999 BKN220 QNH3021INS TEMPO 0217/0222 9000 FU BECMG 0222/0223 08009KT 9999 SCT080 BKN150 QNH3019INS TEMPO 0223/0224 9000 FU BECMG 0303/0304 15012KT 9999 SCT080 BKN120 BKN200 QNH3018INS BECMG 0312/0313 30009KT 9999 SCT060 BKN120 BKN200 QNH3015INS TX30/0221Z TN17/0312Z
KBJC 
19nm W 
021738Z 0218/0318 08007KT 6SM FU SCT080 SCT150 FM022100 04008KT 6SM FU SCT080 BKN150 FM030000 VRB05KT P6SM SCT080 BKN140 FM030300 24008KT P6SM SCT080 BKN120 FM031400 VRB05KT P6SM SCT080 BKN120
NOTAMs
Click for the latest NOTAMs
NOTAMs are issued by the DoD/FAA and will open in a separate window not controlled by AirNav.

 

 
 

Would you like to see your business listed on this page?

 If your business provides an interesting product or service to pilots, flight crews, aircraft, or users of the Van Aire Airport, you should consider listing it here.  To start the listing process, click on the button below
 
Add a business
 

Other Pages about Van Aire Airport

www.ahico.com/...
 
Update a link
 
Copyright © AirNav, LLC. All rights reserved. Privacy Policy  Contact